Oak Ridge, TN

1:07 AM EDT on October 19, 2017 (GMT -0400)
Oak Ridge

Weather History for KOQT - April, 2014

Change the Weather History Date:

Friday, April 11, 2014

  Actual Average (KTYS) Record (KTYS)
Temperature  
Mean Temperature 64 °F -  
Max Temperature 77 °F 70 °F 86 °F (1930)
Min Temperature 53 °F 43 °F 27 °F (1960)
Degree Days  
Heating Degree Days 1    
Growing Degree Days 14 (Base 50)    
Moisture  
Dew Point 42 °F    
Average Humidity 45    
Maximum Humidity 81    
Minimum Humidity 31    
Precipitation  
Precipitation 0.02 in - - ()
Sea Level Pressure  
Sea Level Pressure 30.13 in    
Wind  
Wind Speed 5 mph (SW)    
Max Wind Speed 13 mph    
Max Gust Speed 22 mph    
Visibility 10 miles    
Events Rain    
Averages and records for this station are not official NWS values.
T = Trace of Precipitation, MM = Missing Value Source: NWS Daily Summary

Daily Weather History Graph

Daily Weather History Graph

Search for Another Location

Airport or City:

Trip Planner

Search our weather history database for the weather conditions in past years. The results will help you decide how hot, cold, wet, or windy it might be!

Date:

Astronomy

Apr. 11, 2014 Rise Set
Actual Time 7:09 AM EDT 8:07 PM EDT
Civil Twilight 6:42 AM EDT 8:33 PM EDT
Nautical Twilight 6:11 AM EDT 9:04 PM EDT
Astronomical Twilight 5:39 AM EDT 9:36 PM EDT
Moon 4:52 PM EDT (4/11) 4:57 AM EDT (4/11)
Length of Visible Light 13h 50m
Length of Day
12h 58m
Waxing Gibbous, 87% of the Moon is Illuminated
Apr 11
Waxing Gibbous
Apr 15
Full
Apr 22
Last Quarter
Apr 29
New
May 6
First Quarter

Hourly Weather History & Observations

Time (EDT) Temp. Dew Point Humidity Pressure Visibility Wind Dir Wind Speed Gust Speed Precip Events Conditions
12:53 AM 59.0 °F 37.9 °F 46% 30.13 in 10.0 mi WSW 3.5 mph - N/A   Clear
1:53 AM 59.0 °F 37.9 °F 46% 30.12 in 10.0 mi West 3.5 mph - N/A   Clear
2:53 AM 57.9 °F 37.9 °F 47% 30.12 in 10.0 mi SW 3.5 mph - N/A   Clear
3:53 AM 57.0 °F 37.9 °F 49% 30.13 in 10.0 mi Calm Calm - N/A   Clear
4:53 AM 54.0 °F 39.0 °F 57% 30.13 in 10.0 mi SW 3.5 mph - N/A   Clear
5:53 AM 53.1 °F 39.0 °F 59% 30.15 in 10.0 mi West 3.5 mph - N/A   Clear
6:53 AM 54.0 °F 39.0 °F 57% 30.17 in 10.0 mi Calm Calm - N/A   Clear
7:53 AM 55.0 °F 39.0 °F 55% 30.19 in 10.0 mi WSW 3.5 mph - N/A   Clear
8:53 AM 57.0 °F 39.9 °F 53% 30.20 in 10.0 mi WSW 4.6 mph - N/A   Clear
9:53 AM 59.0 °F 41.0 °F 51% 30.19 in 10.0 mi Variable 5.8 mph - N/A   Clear
10:53 AM 64.0 °F 43.0 °F 46% 30.18 in 10.0 mi Variable 6.9 mph - N/A   Clear
11:53 AM 70.0 °F 44.1 °F 39% 30.17 in 10.0 mi Variable 5.8 mph - N/A   Clear
12:53 PM 72.0 °F 39.9 °F 31% 30.14 in 10.0 mi SSW 10.4 mph 21.9 mph N/A   Clear
1:53 PM 73.9 °F 43.0 °F 33% 30.12 in 10.0 mi SSW 9.2 mph - N/A   Clear
2:53 PM 73.9 °F 42.1 °F 32% 30.10 in 10.0 mi Variable 5.8 mph - N/A   Clear
3:53 PM 75.9 °F 43.0 °F 31% 30.06 in 10.0 mi North - - N/A   Clear
4:53 PM 75.9 °F 44.1 °F 32% 30.05 in 10.0 mi SSW 10.4 mph - N/A   Clear
5:53 PM 75.0 °F 44.1 °F 33% 30.04 in 10.0 mi South 12.7 mph 18.4 mph N/A   Clear
6:53 PM 75.0 °F 44.1 °F 33% 30.05 in 10.0 mi SSW 9.2 mph - N/A   Mostly Cloudy
7:53 PM 72.0 °F 45.0 °F 38% 30.07 in 10.0 mi SSW 6.9 mph - N/A   Clear
8:53 PM 70.0 °F 46.0 °F 42% 30.09 in 10.0 mi Variable 4.6 mph - N/A   Clear
9:53 PM 68.0 °F 46.0 °F 45% 30.13 in 10.0 mi SW 3.5 mph - N/A   Clear
10:53 PM 69.1 °F 46.0 °F 44% 30.17 in 10.0 mi WNW 4.6 mph - 0.00 in Rain Light Rain
11:53 PM 61.0 °F 55.0 °F 81% 30.18 in 9.0 mi Calm Calm - 0.02 in Rain Light Rain